Sitka Rocky Gutierrez current weather conditions

sailwx.info

Wind from 320 at 5 knots

Air temperature 7.0° C
Visibility: greater than 8.7 NM
Dewpoint 4.0° C

Last reported at 2015-Apr-28 05:53 UTC.
Time now 2015-Apr-28 06:48 UTC

Location: N 57°03' W 135°22'.
View on Google Maps.

See reports from other nearby stations

  
Tides and Currents Weather Stations Pressure Air Temp Water Temp Dewpoint Dewpoint Depression Visibility Wind Speed Wind Dir Waves Ship Positions
date/time (UTC)wind fromknots sea level pressurealtimeterstation pressurevisibilityair tempwater tempwave heightnotes
2015-Apr-28 05:53 320 5 8.7 7.0
2015-Apr-28 04:53 320 6 8.7 7.0
2015-Apr-28 03:53 310 6 8.7 7.0
2015-Apr-28 02:53 270 4 8.7 7.0
2015-Apr-28 01:53 220 11 8.7 8.0
2015-Apr-28 00:53 080 10 8.7 9.0
2015-Apr-27 23:53 110 9 8.7 9.0
2015-Apr-27 22:53 100 13 8.7 9.0
2015-Apr-27 21:53 100 9 8.7 9.0
2015-Apr-27 20:53 110 10 8.7 9.0
2015-Apr-27 19:53 110 10 8.7 8.0
2015-Apr-27 18:53 8.7 6.0
2015-Apr-27 18:43 320 4 8.7 6.0
2015-Apr-27 18:22 290 6 8.7 6.0
2015-Apr-27 17:53 8.7 6.0 Light rain.
2015-Apr-27 16:53 340 10 8.7 6.0
2015-Apr-27 15:53 100 6 5.2 4.0 Mist.
2015-Apr-27 15:24 070 8 2.6 4.0 Mist.
2015-Apr-27 14:53 140 7 gusting 18 2.6 4.0 Rain.
2015-Apr-27 14:13 120 15 6.1 5.0 Light rain.
2015-Apr-27 13:53 130 15 7.8 6.0 Light rain.
2015-Apr-27 12:53 110 10 8.7 6.0
2015-Apr-27 11:53 100 13 8.7 5.0
2015-Apr-27 11:30 110 13 8.7 6.0 Light rain.
2015-Apr-27 11:16 140 13 gusting 20 4.3 6.0 Rain.
2015-Apr-27 10:53 090 9 8.7 6.0
2015-Apr-27 09:53 150 8 8.7 6.0 Light rain.
2015-Apr-27 08:53 100 8 8.7 6.0
2015-Apr-27 07:53 090 9 8.7 5.0
2015-Apr-27 06:53 080 9 8.7 5.0
2015-Apr-27 06:37 090 7 8.7 6.0
2015-Apr-27 06:26 100 6 5.2 6.0 Light rain. Mist.
2015-Apr-27 05:53 200 8 gusting 23 6.1 6.0 Light rain.
2015-Apr-27 04:53 110 10 8.7 7.0 Light rain.
2015-Apr-27 03:53 120 9 8.7 7.0 Light rain.
2015-Apr-27 02:53 140 5 8.7 8.0 Light rain.
2015-Apr-27 01:53 110 7 8.7 8.0 Light rain.
2015-Apr-27 00:53 150 11 gusting 22 4.3 7.0 Light rain.
2015-Apr-26 23:53 180 11 gusting 18 3.5 8.0 Rain.
2015-Apr-26 22:53 190 10 gusting 20 5.2 7.0 Light rain. Mist.
2015-Apr-26 21:53 140 10 8.7 8.0 Light rain.
2015-Apr-26 20:53 130 13 8.710.0
2015-Apr-26 19:53 130 15 gusting 22 8.7 9.0
2015-Apr-26 18:53 130 13 gusting 23 8.7 9.0
2015-Apr-26 17:53 140 15 gusting 23 8.7 8.0
2015-Apr-26 16:53 130 22 gusting 27 8.7 8.0
2015-Apr-26 15:53 120 18 gusting 25 8.7 8.0 Light rain.
2015-Apr-26 14:53 120 19 gusting 25 8.7 9.0
2015-Apr-26 13:53 110 18 gusting 30 8.7 9.0
2015-Apr-26 12:53 120 18 gusting 25 8.7 9.0
2015-Apr-26 11:53 130 23 gusting 32 8.710.0 Light rain.
2015-Apr-26 10:53 130 18 gusting 29 8.712.0
2015-Apr-26 09:53 120 14 gusting 25 8.712.0
2015-Apr-26 08:53 130 18 gusting 30 8.712.0
2015-Apr-26 07:53 120 17 gusting 24 8.712.0
2015-Apr-26 06:53 130 12 8.711.0